Weather History for Pratt, KS

Change the Weather History Date:

Monday, October 15, 2012

  Actual Average (KP28) Record (KP28)
Temperature  
Mean Temperature 65 °F 59 °F  
Max Temperature 86 °F 72 °F 92 °F (1958)
Min Temperature 44 °F 47 °F 29 °F (1978)
Degree Days  
Heating Degree Days 0 7  
Month to date heating degree days 79  
Since 1 July heating degree days 113  
Cooling Degree Days 0 1  
Month to date cooling degree days 31  
Year to date cooling degree days 1762  
Growing Degree Days 15 (Base 50)    
Moisture  
Dew Point 38 °F    
Average Humidity 44    
Maximum Humidity 81    
Minimum Humidity 15    
Precipitation  
Precipitation 0.00 in 0.12 in 2.10 in (1906)
Month to date precipitation 1.43  
Year to date precipitation 23.88  
Snow  
Snow 0.00 in 0.00 in - ()
Month to date snowfall 0.0  
Since 1 July snowfall 0.0  
Since 1 September snowfall 0.0  
Snow Depth -    
Sea Level Pressure  
Sea Level Pressure 29.95 in    
Wind  
Wind Speed 10 mph (SW)    
Max Wind Speed 20 mph    
Max Gust Speed 28 mph    
Visibility 10 miles    
Events      
T = Trace of Precipitation, MM = Missing Value Source: NWS Daily Summary

Daily Weather History Graph

Daily Weather History Graph

Search for Another Location

Airport:

Trip Planner

Search our weather history database for the weather conditions in past years. The results will help you decide how hot, cold, wet, or windy it might be!

Date:

Astronomy

Oct. 15, 2012 Rise Set
Actual Time 7:43 AM CDT 6:56 PM CDT
Civil Twilight 7:17 AM CDT 7:23 PM CDT
Nautical Twilight 6:46 AM CDT 7:53 PM CDT
Astronomical Twilight 6:16 AM CDT 8:23 PM CDT
Moon 7:54 AM CDT (10/15) 6:59 PM CDT (10/15)
Length of Visible Light 12h 05m
Length of Day
11h 13m
New Moon, 0% of the Moon is Illuminated
Oct 15
New Moon
Oct 21
First Quarter
Oct 29
Full
Nov 6
Last Quarter
Nov 13
New

Hourly Weather History & Observations

Time (CDT) Temp. Windchill Dew Point Humidity Pressure Visibility Wind Dir Wind Speed Gust Speed Precip Events Conditions
12:15 AM 48.2 °F - 41.0 °F 76% 30.10 in 10.0 mi West 6.9 mph - N/A   Clear
12:35 AM 46.4 °F 43.5 °F 41.0 °F 81% 30.09 in 10.0 mi West 5.8 mph - N/A   Clear
12:55 AM 46.4 °F 42.9 °F 41.0 °F 81% 30.09 in 10.0 mi WSW 6.9 mph - N/A   Clear
1:15 AM 46.4 °F 41.9 °F 41.0 °F 81% 30.09 in 10.0 mi WSW 9.2 mph - N/A   Clear
1:35 AM 50.0 °F - 41.0 °F 71% 30.09 in 10.0 mi WSW 9.2 mph - N/A   Clear
1:55 AM 50.0 °F - 41.0 °F 71% 30.08 in 10.0 mi West 8.1 mph - N/A   Clear
2:15 AM 50.0 °F - 41.0 °F 71% 30.08 in 10.0 mi WSW 6.9 mph - N/A   Clear
2:55 AM 50.0 °F - 41.0 °F 71% 30.08 in 10.0 mi WSW 9.2 mph - N/A   Clear
3:15 AM 50.0 °F - 41.0 °F 71% 30.07 in 10.0 mi WSW 8.1 mph - N/A   Clear
3:35 AM 48.2 °F - 41.0 °F 76% 30.06 in 10.0 mi WSW 8.1 mph - N/A   Clear
3:55 AM 48.2 °F - 41.0 °F 76% 30.05 in 10.0 mi WSW 6.9 mph - N/A   Clear
4:15 AM 48.2 °F - 41.0 °F 76% 30.05 in 10.0 mi WSW 8.1 mph - N/A   Clear
4:55 AM 48.2 °F - 39.2 °F 71% 30.05 in 10.0 mi WSW 8.1 mph - N/A   Clear
5:15 AM 48.2 °F - 39.2 °F 71% 30.05 in 10.0 mi WSW 9.2 mph - N/A   Clear
5:55 AM 46.4 °F 42.4 °F 39.2 °F 76% 30.05 in 10.0 mi WSW 8.1 mph - N/A   Clear
6:15 AM 46.4 °F 42.9 °F 37.4 °F 71% 30.05 in 10.0 mi WSW 6.9 mph - N/A   Clear
6:35 AM 44.6 °F 40.7 °F 37.4 °F 76% 30.05 in 10.0 mi WSW 6.9 mph - N/A   Clear
6:55 AM 44.6 °F 40.2 °F 37.4 °F 76% 30.04 in 10.0 mi WSW 8.1 mph - N/A   Clear
7:15 AM 44.6 °F 40.7 °F 37.4 °F 76% 30.04 in 10.0 mi WSW 6.9 mph - N/A   Clear
7:35 AM 44.6 °F 41.4 °F 37.4 °F 76% 30.04 in 10.0 mi WSW 5.8 mph - N/A   Clear
7:55 AM 46.4 °F 42.9 °F 39.2 °F 76% 30.04 in 10.0 mi WSW 6.9 mph - N/A   Clear
8:15 AM 46.4 °F 42.9 °F 41.0 °F 81% 30.04 in 10.0 mi WSW 6.9 mph - N/A   Clear
8:35 AM 53.6 °F - 42.8 °F 67% 30.04 in 10.0 mi WSW 8.1 mph - N/A   Clear
8:55 AM 57.2 °F - 42.8 °F 59% 30.03 in 10.0 mi WSW 10.4 mph - N/A   Clear
9:15 AM 60.8 °F - 41.0 °F 48% 30.04 in 10.0 mi WSW 12.7 mph - N/A   Clear
9:35 AM 64.4 °F - 41.0 °F 42% 30.04 in 10.0 mi WSW 17.3 mph 20.7 mph N/A   Clear
9:55 AM 68.0 °F - 39.2 °F 35% 30.04 in 10.0 mi WSW 18.4 mph 23.0 mph N/A   Clear
10:15 AM 69.8 °F - 39.2 °F 33% 30.03 in 10.0 mi WSW 16.1 mph - N/A   Clear
10:35 AM 71.6 °F - 39.2 °F 31% 30.03 in 10.0 mi WSW 17.3 mph 23.0 mph N/A   Clear
10:55 AM 73.4 °F - 39.2 °F 29% 30.02 in 10.0 mi WSW 17.3 mph 24.2 mph N/A   Clear
11:15 AM 77.0 °F - 39.2 °F 26% 30.02 in 10.0 mi WSW 18.4 mph 25.3 mph N/A   Clear
11:55 AM 78.8 °F - 37.4 °F 23% 30.01 in 10.0 mi WSW 18.4 mph 26.5 mph N/A   Clear
12:15 PM 78.8 °F - 37.4 °F 23% 30.00 in 10.0 mi WSW 17.3 mph 27.6 mph N/A   Clear
12:35 PM 80.6 °F - 35.6 °F 20% 29.99 in 10.0 mi WSW 19.6 mph - N/A   Clear
1:15 PM 82.4 °F - 35.6 °F 19% 29.97 in 10.0 mi SW 11.5 mph 18.4 mph N/A   Clear
1:35 PM 82.4 °F - 35.6 °F 19% 29.95 in 10.0 mi SW 12.7 mph - N/A   Clear
1:55 PM 82.4 °F - 35.6 °F 19% 29.94 in 10.0 mi SW 12.7 mph - N/A   Clear
2:15 PM 84.2 °F - 35.6 °F 18% 29.92 in 10.0 mi WSW 11.5 mph - N/A   Clear
2:35 PM 86.0 °F - 33.8 °F 15% 29.91 in 10.0 mi SW 13.8 mph 18.4 mph N/A   Clear
2:55 PM 86.0 °F - 33.8 °F 15% 29.90 in 10.0 mi SW 10.4 mph - N/A   Clear
3:15 PM 86.0 °F - 33.8 °F 15% 29.89 in 10.0 mi SSW 8.1 mph 17.3 mph N/A   Clear
3:35 PM 86.0 °F - 33.8 °F 15% 29.88 in 10.0 mi SSW 9.2 mph - N/A   Clear
3:55 PM 86.0 °F - 35.6 °F 17% 29.87 in 10.0 mi SSW 13.8 mph 17.3 mph N/A   Clear
4:15 PM 86.0 °F - 35.6 °F 17% 29.87 in 10.0 mi SSW 13.8 mph - N/A   Clear
4:35 PM 86.0 °F - 35.6 °F 17% 29.86 in 10.0 mi SW 13.8 mph 19.6 mph N/A   Clear
4:55 PM 84.2 °F - 35.6 °F 18% 29.86 in 10.0 mi SSW 18.4 mph 27.6 mph N/A   Clear
5:15 PM 84.2 °F - 35.6 °F 18% 29.85 in 10.0 mi SSW 12.7 mph - N/A   Clear
5:35 PM 82.4 °F - 35.6 °F 19% 29.84 in 10.0 mi SSW 18.4 mph - N/A   Clear
5:55 PM 82.4 °F - 35.6 °F 19% 29.84 in 10.0 mi SSW 13.8 mph - N/A   Clear
6:15 PM 80.6 °F - 35.6 °F 20% 29.83 in 10.0 mi SSW 10.4 mph - N/A   Clear
6:35 PM 78.8 °F - 37.4 °F 23% 29.83 in 10.0 mi South 9.2 mph - N/A   Clear
6:55 PM 73.4 °F - 37.4 °F 27% 29.83 in 10.0 mi SSW 8.1 mph - N/A   Clear
7:15 PM 71.6 °F - 35.6 °F 27% 29.82 in 10.0 mi South 8.1 mph - N/A   Clear
7:35 PM 69.8 °F - 35.6 °F 28% 29.82 in 10.0 mi South 8.1 mph - N/A   Clear
7:55 PM 66.2 °F - 35.6 °F 32% 29.82 in 10.0 mi South 6.9 mph - N/A   Clear
8:15 PM 64.4 °F - 35.6 °F 34% 29.82 in 10.0 mi South 9.2 mph - N/A   Clear
8:35 PM 69.8 °F - 33.8 °F 27% 29.82 in 10.0 mi South 8.1 mph - N/A   Clear
8:55 PM 62.6 °F - 35.6 °F 37% 29.82 in 10.0 mi South 8.1 mph - N/A   Clear
9:15 PM 64.4 °F - 35.6 °F 34% 29.82 in 10.0 mi South 10.4 mph - N/A   Clear
9:35 PM 64.4 °F - 35.6 °F 34% 29.83 in 10.0 mi SSW 10.4 mph - N/A   Clear
9:55 PM 62.6 °F - 35.6 °F 37% 29.83 in 10.0 mi SSW 11.5 mph - N/A   Clear
10:15 PM 62.6 °F - 37.4 °F 39% 29.83 in 10.0 mi South 11.5 mph - N/A   Clear
10:35 PM 60.8 °F - 37.4 °F 42% 29.83 in 10.0 mi SSW 10.4 mph - N/A   Clear
10:55 PM 60.8 °F - 37.4 °F 42% 29.83 in 10.0 mi SSW 9.2 mph - N/A   Clear
11:15 PM 59.0 °F - 37.4 °F 45% 29.82 in 10.0 mi South 11.5 mph - N/A   Clear
11:35 PM 59.0 °F - 37.4 °F 45% 29.82 in 10.0 mi SSW 9.2 mph - N/A   Clear
11:55 PM 59.0 °F - 37.4 °F 45% 29.82 in 10.0 mi SSW 11.5 mph - N/A   Clear